Location: Deurze
(52.9838°N, 6.6090°E)
Time: 04:55:08
(UTC+00:00)

Cosmos 2026 Rocket - Visible Passes

Search period start: 06 June 2026 00:00
Search period end: 16 June 2026 00:00
Orbit: 939 x 999 km, 82.9° (Epoch: 5 June)

Date Brightness Start Highest point End Pass type
(mag) Time Alt. Az. Time Alt. Az. Time Alt. Az.
6 Jun 6.0 20:34:12 10° NNW 20:39:20 27° W 20:44:25 10° SW visible
7 Jun 6.5 20:58:21 10° NW 21:02:14 17° WNW 21:06:04 10° WSW visible
8 Jun 7.0 21:24:09 10° WNW 21:24:58 10° WNW 21:25:46 10° WNW visible
11 Jun 6.7 20:47:19 10° NW 20:50:06 13° WNW 20:52:51 10° W visible
